Zurück zum Katalog

METEOSAT 1 AKM

AktivGEO
NORAD 13907·ROCKET BODY·🇪🇺 EU

Gestartet Nov 23, 1977 von Cape Canaveral Space Force Station

Loading…

TLE

AktuellSource: Space-Track

Epoche: Sep 14, 2026, 16:36 UTC

1 13907U 77108D   26257.69218822 -.00000052  00000-0  00000-0 0  9991
2 13907   6.0826 279.9681 0089689 157.8822  35.6952  0.97799027113510

Verfolge METEOSAT 1 AKM in Echtzeit mit AllMySat

Download on the App Store